{"data":{"norad_id":65832,"epoch":"2026-09-20T23:27:06.432192Z","epoch_age_seconds":64847,"freshness":"FRESH","line1":"1 65832U 25221K   26263.97715778  .00012358  00000+0  37632-3 0  9998","line2":"2 65832  53.1604 257.6529 0001476  75.7392 284.3774 15.34396182 56033","mean_motion":15.34396182,"eccentricity":0.0001476,"inclination_deg":53.1604,"raan_deg":257.6529,"arg_perigee_deg":75.7392,"mean_anomaly_deg":284.3774,"bstar":0.00037632,"rev_number":5603,"period_min":93.847991600386,"perigee_km":461.70487843683,"apogee_km":463.72429782565,"semimajor_km":6840.8515881312,"source":"CELESTRAK","updated_at":"2026-09-21T09:00:35.720806Z"}}